Wormley Airport

Jump to: basic info | weather | runways | comments

Related pages: nearby airports | nearby navaids | notams | map

Basic information (top)

Codes: 85LL
Location: lon 41.683899, lat -88.262299, elev 680 ft / 207 m msl
Status: small_airport

Weather (top)

Current conditions for Lewis University Airport 9nm (16km) ESE (rec'd 2014/08/31 05:55Z):

KLOT 310555Z AUTO 19004KT 10SM CLR 20/20 A2993

Airport forecast for Dupage Airport 13nm (25km) N (rec'd 2014/08/31 06:51Z):

TAF KDPA 310548Z 3106/0106 VRB03KT P6SM BKN250 
     FM310700 00000KT 4SM MIFG BR SCT300 
     FM311000 00000KT 1 1/2SM MIFG BR SCT003 
     FM311400 20006KT P6SM SCT030 
     FM010200 17005KT P6SM SKC

Runways (top)

N/S: 2,300 x 100 ft (701 x 30 m) — grass — not lighted

Latest comments (top)

No comments yet for Wormley Airport

More... (top)

See also NOTAMs and nearby airports and navaids, or visit the Wormley Airport page at the main OurAirports website..